Simultaneous Nadir Overpasses (SNOs) Predictions

Prediction of SNOs near US between AQUA and NPP Satellite Orbit:

Table of predicted SNOs near US for the next 10.0 days since TLE Epoch: 11/16/2014
Index Date (AQUA) Time (AQUA) AQUA Lat,Lon Date (NPP) Time (NPP) NPP Lat,Lon Distance(km) Time Diff (sec)
1 11/16/2014 07:45:57 20.02, -89.58 11/16/2014 07:43:42 19.98, -89.42 17.45 135
2 11/16/2014 09:16:35 49.68,-105.49 11/16/2014 09:16:42 49.67,-105.53 2.77 7
3 11/18/2014 20:14:42 49.95,-109.60 11/18/2014 20:06:52 50.07,-108.83 56.42 470
4 11/21/2014 17:27:32 48.89, -67.44 11/21/2014 17:27:50 48.69, -68.59 87.08 18
5 11/21/2014 19:03:54 39.89, -88.96 11/21/2014 19:06:43 39.61, -90.58 142.61 169
6 11/21/2014 20:40:17 30.89,-111.09 11/21/2014 20:45:36 30.46,-113.21 208.71 319
7 11/24/2014 06:56:32 20.00, -77.22 11/24/2014 06:52:53 19.90, -76.77 48.05 219
8 11/24/2014 08:31:14 35.10, -98.10 11/24/2014 08:30:03 35.11, -98.09 0.66 71
9 11/24/2014 10:05:59 49.90,-117.76 11/24/2014 10:07:17 49.93,-118.13 26.61 78




NCC Satellite Simultaneous Nadir Overpasses (SNOs) Prediction Service
